sat.trackr.live / text

‹ back to catalog

STARLINK-32948

NORAD 63123 · 2025-039V

PAYLOAD ACTIVE UNKNOWN

§ Identity

Operator
Country
US
Launch date
2025-02-27
Launch site
AFETR
Launch vehicle
Mass (kg)
RCS (m²)

Purposes: comms

External: N2YO · Heavens-Above · Gunter

§ Orbital elements

Epoch: 2026-05-24T17:04:32.596896Z

Period
94.27 min
Inclination
43.0007°
Eccentricity
0.0002065
Mean motion
15.27601434 rev/d
Perigee alt
481.6 km
Apogee alt
484.4 km
Semi-major
6,861.1 km
B*
9.4789e-4
RAAN
303.4239°
Arg perigee
270.0503°
Mean anomaly
90.0112°
Rev number
6,969

§ Raw data

STARLINK-329481 63123U 25039V   26144.71148839  .00025931  00000+0  94789-3 0  99912 63123  43.0007 303.4239 0002065 270.0503  90.0112 15.27601434 69691

JSON: /api/v1/satellites/63123 · /tle

For live sub-satellite position, see the globe view (requires WebGL).

§ Visibility from observer

Set your observer location to see the next 7 days of passes ≥ 10°. The values pass through the URL so the page stays shareable.

No JS? Fill the form by hand. The geolocation button needs JavaScript.